[[{"header":{"parameterUnit":"m.s-1","parameterCategory":2,"la1":30.2992,"la2":30.254,"lo1":-89.0895,"lo2":-89.0443,"dy":0.0025,"dx":0.0025,"nx":19,"ny":19,"refTime":"2026-04-03T21:00:00:Z","depth":"0","parameterNumber":2,"parameterNumberName":"U-component_of_CURRENTS"},"data":[0,0,0,-0.1608,-0.1609,-0.1636,-0.1636,-0.1592,-0.1591,0,0,0,0,0,0,0,0,0,0,0,-0.159,-0.159,-0.1607,-0.1609,-0.1636,-0.1636,-0.1592,-0.1591,0,0,0,0,0,0,0,0,0,0,0,-0.1589,-0.159,-0.1591,-0.1609,-0.1636,-0.1636,-0.1592,-0.1584,0,0,0,0,0,0,0,0,0,0,-0.1565,-0.1548,-0.159,-0.1591,-0.161,-0.1636,-0.1636,-0.1585,-0.1585,-0.1565,0,-0.1586,0,-0.1602,-0.1589,-0.1589,0,0,0,-0.1582,-0.1548,-0.1584,-0.1591,-0.161,-0.1636,-0.1616,-0.1585,-0.1585,-0.1565,-0.1586,-0.1585,-0.1602,-0.1589,-0.1589,-0.1731,-0.1732,0,0,-0.1581,-0.156,-0.1585,-0.1585,-0.1638,-0.1616,-0.1618,-0.1586,-0.1576,-0.1586,-0.1584,-0.1601,-0.1589,-0.1588,-0.1729,-0.1731,0,0,0,-0.1595,-0.1559,-0.1596,-0.1586,-0.1606,-0.1617,-0.1619,-0.1576,-0.1598,-0.1584,-0.16,-0.1588,-0.1588,-0.1727,-0.173,-0.1796,0,0,0,-0.1592,-0.157,-0.1596,-0.1579,-0.1608,-0.1598,-0.161,-0.1599,-0.1597,-0.1601,-0.1588,-0.1588,-0.1725,-0.1728,-0.179,-0.1806,0,0,0,-0.1585,-0.1568,-0.1585,-0.1579,-0.1607,-0.16,-0.1617,-0.1599,-0.1608,-0.1589,-0.1588,-0.1724,-0.1728,-0.1784,-0.1798,-0.1826,0,0,0,-0.1543,-0.1563,-0.1584,-0.1593,-0.1608,-0.1662,-0.1617,-0.1618,-0.1605,-0.1588,-0.1725,-0.1729,-0.1783,-0.1793,-0.1822,-0.1687,-0.1697,0,0,-0.1547,-0.1562,-0.1566,-0.1587,-0.1628,-0.1655,-0.1736,-0.1688,-0.1675,-0.1719,-0.1723,-0.1792,-0.1797,-0.1825,-0.1936,-0.1937,0,0,0,-0.1552,-0.1553,-0.1566,-0.1591,-0.1648,-0.1747,-0.174,-0.1778,-0.1829,-0.1696,-0.1862,-0.1864,-0.1878,-0.1791,-0.1794,-0.1727,-0.1749,-0.1749,-0.1749,-0.1506,-0.1538,-0.1563,-0.1628,-0.1694,-0.1807,-0.1884,-0.1956,-0.1908,-0.1978,-0.197,-0.2109,-0.2022,-0.2022,-0.1958,-0.2038,-0.2038,-0.2038,-0.2038,-0.148,-0.1495,-0.1579,-0.161,-0.1759,-0.1853,-0.2049,-0.2067,-0.2169,-0.213,-0.214,-0.1931,-0.2028,-0.1959,-0.2044,-0.2043,-0.2042,-0.2042,-0.2041,-0.141,-0.1444,-0.1458,-0.1568,-0.173,-0.1906,-0.2077,-0.2183,-0.222,-0.2256,-0.2121,-0.2117,-0.2004,-0.2243,-0.2244,-0.2244,-0.2244,-0.2244,-0.2244,-0.1347,-0.1387,-0.1416,-0.155,-0.1653,-0.1846,-0.2083,-0.2149,-0.2193,-0.2191,-0.2189,-0.2062,-0.217,-0.2102,-0.2248,-0.2248,-0.2247,-0.2247,-0.2246,-0.1273,-0.1297,-0.134,-0.1413,-0.1657,-0.1794,-0.2012,-0.209,-0.2155,-0.213,-0.203,-0.2152,-0.2105,-0.21,-0.2032,-0.2152,-0.2152,-0.2152,-0.2152,-0.1224,-0.1244,-0.1293,-0.1409,-0.1601,-0.1785,-0.1829,-0.189,-0.1923,-0.1898,-0.196,-0.1882,-0.1888,-0.1825,-0.1827,-0.1753,-0.18,-0.1799,-0.1799,-0.1189,-0.121,-0.1228,-0.1344,-0.1571,-0.1713,-0.1676,-0.1651,-0.1715,-0.1785,-0.1905,-0.192,-0.1808,-0.1823,-0.1722,-0.173,-0.1606,0,0]},{"header":{"parameterUnit":"m.s-1","parameterCategory":2,"la1":30.2992,"la2":30.254,"lo1":-89.0895,"lo2":-89.0443,"dy":0.0025,"dx":0.0025,"nx":19,"ny":19,"refTime":"2026-04-03T21:00:00:Z","depth":"0","parameterNumber":3,"parameterNumberName":"V-component_of_CURRENTS"},"data":[0,0,0,-0.006,-0.006,-0.0024,-0.0023,0.0116,0.0117,0,0,0,0,0,0,0,0,0,0,0,-0.0066,-0.0066,-0.006,-0.006,-0.0024,-0.0023,0.0116,0.0117,0,0,0,0,0,0,0,0,0,0,0,-0.0066,-0.0066,-0.0066,-0.006,-0.0024,-0.0023,0.0116,0.0071,0,0,0,0,0,0,0,0,0,0,0.0026,-0.0002,-0.0066,-0.0066,-0.006,-0.0024,-0.0023,0.0068,0.0074,0.0119,0,0.0111,0,0.0107,0.0127,0.0127,0,0,0,-0.0037,-0.0007,-0.0002,-0.0066,-0.006,-0.0024,-0.0034,0.0071,0.0077,0.0127,0.0113,0.0117,0.0109,0.0128,0.0128,0.0316,0.0317,0,0,-0.0039,-0.0047,-0.0007,0.0002,-0.0066,-0.0035,-0.0033,0.0074,0.0079,0.0114,0.012,0.0112,0.0129,0.013,0.0315,0.0316,0,0,0,-0.006,-0.0049,-0.0048,-0.0003,-0.001,-0.0035,-0.0032,0.0075,0.0073,0.0122,0.0113,0.0129,0.0131,0.0314,0.0316,0.0291,0,0,0,-0.006,-0.0063,-0.0049,-0.0052,-0.0013,0.0019,-0.0033,0.0066,0.0077,0.0113,0.013,0.0133,0.0313,0.0315,0.0289,0.0245,0,0,0,-0.0065,-0.0063,-0.0066,-0.0053,-0.0049,0.0017,0.0022,0.0068,0.0072,0.0127,0.0133,0.0312,0.0314,0.0288,0.0244,0.0292,0,0,0,-0.0065,-0.0103,-0.0066,-0.0096,-0.005,-0.0015,0.0021,0.0056,0.0098,0.013,0.0313,0.0315,0.0287,0.0244,0.0291,0.0209,0.0207,0,0,-0.0121,-0.011,-0.0126,-0.0093,-0.0084,-0.0018,0.0045,0.0107,0.0161,0.0286,0.029,0.029,0.0244,0.0292,0.0348,0.0341,0,0,0,-0.0149,-0.0154,-0.0144,-0.0127,-0.0083,-0.0006,0.0072,0.0146,0.0261,0.0193,0.0346,0.0318,0.0349,0.0299,0.0296,0.0449,0.0327,0.0326,0.0326,-0.0219,-0.0191,-0.0198,-0.0145,-0.0101,0.0023,0.0107,0.0236,0.0282,0.035,0.0341,0.0414,0.0363,0.0359,0.052,0.041,0.041,0.041,0.041,-0.0281,-0.0289,-0.0222,-0.0222,-0.0118,-0.0044,0.0155,0.0227,0.0388,0.0403,0.0435,0.0328,0.0353,0.0526,0.0409,0.0409,0.0409,0.0409,0.0409,-0.0322,-0.0328,-0.0314,-0.0288,-0.0222,-0.0094,0.0019,0.018,0.0338,0.0382,0.0365,0.0364,0.0478,0.041,0.041,0.041,0.041,0.041,0.041,-0.0383,-0.0369,-0.0391,-0.0356,-0.0348,-0.0264,-0.0058,0.0057,0.0225,0.0324,0.0325,0.0532,0.0414,0.0371,0.0411,0.0411,0.0411,0.0411,0.0411,-0.0451,-0.0442,-0.0486,-0.0494,-0.0464,-0.0431,-0.0245,-0.0046,0.0113,0.0175,0.0475,0.0325,0.0325,0.0328,0.0285,0.03,0.03,0.03,0.03,-0.05,-0.0496,-0.0565,-0.06,-0.0584,-0.0504,-0.0417,-0.0185,0.0208,0.0413,0.0522,0.0524,0.0522,0.0536,0.0534,0.0497,0.0567,0.0568,0.0569,-0.054,-0.056,-0.0622,-0.0651,-0.0649,-0.0586,-0.0539,-0.0314,0.0285,0.0602,0.0761,0.075,0.0779,0.0762,0.0801,0.0786,0.073,0,0]}],[{"header":{"parameterUnit":"m.s-1","parameterCategory":2,"la1":30.2992,"la2":30.254,"lo1":-89.0895,"lo2":-89.0443,"dy":0.0025,"dx":0.0025,"nx":19,"ny":19,"refTime":"2026-04-03T21:00:00:Z","depth":"2","parameterNumber":2,"parameterNumberName":"U-component_of_CURRENTS"},"data":[0,0,0,-0.1414,-0.1418,-0.1517,-0.1517,-0.1455,-0.1454,0,0,0,0,0,0,0,0,0,0,0,-0.1359,-0.136,-0.1414,-0.1418,-0.1517,-0.1517,-0.1455,-0.1454,0,0,0,0,0,0,0,0,0,0,0,-0.1358,-0.136,-0.1361,-0.1419,-0.1517,-0.1517,-0.1455,-0.1416,0,0,0,0,0,0,0,0,0,0,-0.1339,-0.1312,-0.1359,-0.1361,-0.142,-0.1517,-0.1517,-0.1416,-0.1419,-0.137,0,-0.141,0,-0.1457,-0.145,-0.145,0,0,0,-0.1373,-0.131,-0.1369,-0.1361,-0.1421,-0.1517,-0.146,-0.1419,-0.1421,-0.1373,-0.141,-0.141,-0.1456,-0.1449,-0.1449,-0.1516,-0.1518,0,0,-0.1368,-0.1335,-0.1368,-0.1372,-0.1476,-0.1457,-0.1464,-0.1422,-0.1413,-0.141,-0.1409,-0.1455,-0.1449,-0.1448,-0.1515,-0.1517,0,0,0,-0.1383,-0.1331,-0.1393,-0.1372,-0.1421,-0.1461,-0.1468,-0.1414,-0.1445,-0.1409,-0.1454,-0.1449,-0.1448,-0.1514,-0.1516,-0.156,0,0,0,-0.1377,-0.1344,-0.1391,-0.1366,-0.1424,-0.1442,-0.1461,-0.1447,-0.1446,-0.1454,-0.1449,-0.1447,-0.1512,-0.1515,-0.1556,-0.1566,0,0,0,-0.1349,-0.134,-0.1369,-0.1365,-0.1436,-0.1445,-0.1471,-0.1448,-0.1474,-0.145,-0.1447,-0.1512,-0.1514,-0.1552,-0.1561,-0.1593,0,0,0,-0.1287,-0.1331,-0.1367,-0.1405,-0.1435,-0.1495,-0.1472,-0.1483,-0.1465,-0.1448,-0.1513,-0.1516,-0.1551,-0.1557,-0.159,-0.1454,-0.1458,0,0,-0.1309,-0.1332,-0.1352,-0.1389,-0.144,-0.1476,-0.1527,-0.1495,-0.1498,-0.1501,-0.1504,-0.1557,-0.156,-0.1593,-0.1623,-0.1621,0,0,0,-0.1335,-0.1347,-0.1365,-0.1404,-0.146,-0.1526,-0.1527,-0.1558,-0.1598,-0.1516,-0.1605,-0.1606,-0.1624,-0.1537,-0.1537,-0.1529,-0.1529,-0.1529,-0.1528,-0.1295,-0.1331,-0.136,-0.1417,-0.1464,-0.155,-0.1606,-0.1662,-0.1628,-0.1689,-0.1677,-0.178,-0.1692,-0.1689,-0.1723,-0.1723,-0.1723,-0.1723,-0.1724,-0.1294,-0.1311,-0.1363,-0.1403,-0.1495,-0.1548,-0.1691,-0.1719,-0.1805,-0.1782,-0.1797,-0.1632,-0.1691,-0.1728,-0.1727,-0.1727,-0.1726,-0.1726,-0.1726,-0.1238,-0.1264,-0.1287,-0.1365,-0.146,-0.1573,-0.1698,-0.1792,-0.1844,-0.188,-0.1768,-0.1765,-0.177,-0.188,-0.188,-0.188,-0.188,-0.188,-0.1881,-0.1183,-0.1221,-0.1245,-0.1338,-0.139,-0.1517,-0.1702,-0.1764,-0.1808,-0.1812,-0.181,-0.1832,-0.1827,-0.1781,-0.1884,-0.1884,-0.1883,-0.1883,-0.1883,-0.1129,-0.1152,-0.1182,-0.1221,-0.1351,-0.1416,-0.1602,-0.1678,-0.1753,-0.1733,-0.1773,-0.1775,-0.1741,-0.1739,-0.1692,-0.1766,-0.1766,-0.1766,-0.1766,-0.1083,-0.1105,-0.1128,-0.1175,-0.1269,-0.1373,-0.139,-0.1448,-0.1548,-0.1557,-0.1566,-0.1492,-0.1501,-0.1451,-0.1455,-0.1401,-0.14,-0.1399,-0.1399,-0.1048,-0.1064,-0.1056,-0.1116,-0.1215,-0.1279,-0.1225,-0.1188,-0.1258,-0.1386,-0.1525,-0.1737,-0.165,-0.1656,-0.1593,-0.1595,-0.1513,0,0]},{"header":{"parameterUnit":"m.s-1","parameterCategory":2,"la1":30.2992,"la2":30.254,"lo1":-89.0895,"lo2":-89.0443,"dy":0.0025,"dx":0.0025,"nx":19,"ny":19,"refTime":"2026-04-03T21:00:00:Z","depth":"2","parameterNumber":3,"parameterNumberName":"V-component_of_CURRENTS"},"data":[0,0,0,-0.0126,-0.0125,-0.0071,-0.0071,0.0078,0.0079,0,0,0,0,0,0,0,0,0,0,0,-0.0136,-0.0136,-0.0126,-0.0125,-0.0071,-0.0071,0.0078,0.0079,0,0,0,0,0,0,0,0,0,0,0,-0.0136,-0.0136,-0.0136,-0.0125,-0.0071,-0.0071,0.0077,0.0024,0,0,0,0,0,0,0,0,0,0,-0.0036,-0.0066,-0.0136,-0.0136,-0.0125,-0.0072,-0.0071,0.002,0.0027,0.0067,0,0.0061,0,0.0059,0.0088,0.0089,0,0,0,-0.0097,-0.0071,-0.0065,-0.0136,-0.0125,-0.0072,-0.0088,0.0024,0.0031,0.0076,0.0063,0.0067,0.0061,0.0089,0.009,0.0211,0.0211,0,0,-0.01,-0.011,-0.0071,-0.0061,-0.0128,-0.009,-0.0086,0.0028,0.0035,0.0063,0.007,0.0064,0.009,0.0091,0.0211,0.0211,0,0,0,-0.0128,-0.0113,-0.0109,-0.0066,-0.0071,-0.0089,-0.0085,0.003,0.0028,0.0072,0.0065,0.0091,0.0092,0.021,0.0211,0.0149,0,0,0,-0.0128,-0.0131,-0.0111,-0.0114,-0.0074,-0.0031,-0.0085,0.0021,0.0033,0.0065,0.0091,0.0094,0.021,0.0211,0.015,0.0094,0,0,0,-0.0135,-0.0131,-0.0133,-0.0116,-0.0107,-0.0034,-0.0028,0.0023,0.0028,0.0089,0.0094,0.021,0.021,0.0151,0.0097,0.0127,0,0,0,-0.0135,-0.0163,-0.0133,-0.0147,-0.0108,-0.0073,-0.0029,0.0018,0.0067,0.0091,0.021,0.0211,0.0151,0.0099,0.0128,0.009,0.0082,0,0,-0.0176,-0.0167,-0.0173,-0.0146,-0.0135,-0.0077,-0.0049,0.0031,0.0095,0.0182,0.0185,0.015,0.0097,0.0128,0.0132,0.0122,0,0,0,-0.0188,-0.0193,-0.0179,-0.0165,-0.0125,-0.0094,-0.0016,0.0034,0.012,0.012,0.0182,0.0151,0.0172,0.0152,0.0146,0.0214,0.0214,0.0214,0.0214,-0.0259,-0.0229,-0.0235,-0.0197,-0.0169,-0.0092,-0.0047,0.0037,0.0105,0.0141,0.0126,0.0135,0.0114,0.0108,0.0171,0.0171,0.0171,0.0171,0.0171,-0.0316,-0.0326,-0.0282,-0.0279,-0.0232,-0.0199,-0.0087,-0.0027,0.007,0.011,0.0135,0.0118,0.0097,0.0166,0.0167,0.0168,0.0168,0.0169,0.0169,-0.0362,-0.037,-0.0356,-0.0355,-0.0345,-0.0278,-0.025,-0.0136,-0.0001,0.002,0.0059,0.006,0.0087,0.0058,0.0058,0.0058,0.0058,0.0058,0.0058,-0.0427,-0.0416,-0.0441,-0.0435,-0.0453,-0.0439,-0.0333,-0.0264,-0.012,-0.0022,-0.002,0.0098,0.0101,0.0083,0.0056,0.0056,0.0057,0.0057,0.0057,-0.0494,-0.0484,-0.0531,-0.0555,-0.0589,-0.0613,-0.0512,-0.0366,-0.0248,-0.0179,-0.0016,-0.0013,0.0008,0.0014,-0.0005,-0.0053,-0.0053,-0.0053,-0.0053,-0.0544,-0.054,-0.0612,-0.0672,-0.0719,-0.0697,-0.0657,-0.047,-0.0239,-0.011,-0.0108,-0.0102,-0.0096,-0.0079,-0.0071,-0.009,-0.0161,-0.0161,-0.0161,-0.059,-0.0606,-0.0675,-0.072,-0.0783,-0.0782,-0.0737,-0.0508,-0.0211,-0.0163,-0.0109,-0.0063,-0.0047,-0.0042,-0.0006,0.0003,-0.0024,0,0]}],[{"header":{"parameterUnit":"m.s-1","parameterCategory":2,"la1":30.2992,"la2":30.254,"lo1":-89.0895,"lo2":-89.0443,"dy":0.0025,"dx":0.0025,"nx":19,"ny":19,"refTime":"2026-04-03T21:00:00:Z","depth":"4","parameterNumber":2,"parameterNumberName":"U-component_of_CURRENTS"},"data":[0,0,0,-0.083,-0.0828,-0.0766,-0.0766,-0.0952,-0.0954,0,0,0,0,0,0,0,0,0,0,0,-0.088,-0.088,-0.083,-0.0828,-0.0766,-0.0766,-0.0952,-0.0954,0,0,0,0,0,0,0,0,0,0,0,-0.088,-0.088,-0.088,-0.0828,-0.0766,-0.0766,-0.0951,-0.0935,0,0,0,0,0,0,0,0,0,0,-0.0963,-0.0948,-0.088,-0.088,-0.0827,-0.0766,-0.0766,-0.0932,-0.0936,-0.1052,0,-0.1048,0,-0.0996,-0.0972,-0.0973,0,0,0,-0.0841,-0.0943,-0.094,-0.088,-0.0827,-0.0766,-0.0798,-0.0932,-0.0938,-0.106,-0.105,-0.1054,-0.0999,-0.0973,-0.0975,-0.116,-0.116,0,0,-0.0844,-0.0861,-0.0936,-0.0944,-0.0826,-0.08,-0.0796,-0.0933,-0.0945,-0.105,-0.1057,-0.1002,-0.0975,-0.0977,-0.116,-0.116,0,0,0,-0.0846,-0.0864,-0.0852,-0.0939,-0.0901,-0.0798,-0.0793,-0.0938,-0.0938,-0.1058,-0.1004,-0.0977,-0.098,-0.116,-0.116,-0.119,0,0,0,-0.0848,-0.0863,-0.0854,-0.0862,-0.0896,-0.0875,-0.0796,-0.0929,-0.094,-0.1003,-0.0977,-0.0982,-0.116,-0.116,-0.1189,-0.1187,0,0,0,-0.088,-0.0865,-0.0865,-0.0863,-0.0827,-0.0871,-0.0876,-0.0928,-0.0909,-0.0973,-0.0983,-0.116,-0.116,-0.1188,-0.1185,-0.1188,0,0,0,-0.0891,-0.0902,-0.0866,-0.0893,-0.0828,-0.0885,-0.0874,-0.0962,-0.1031,-0.0978,-0.116,-0.116,-0.1188,-0.1185,-0.1188,-0.1039,0,0,0,-0.0913,-0.0905,-0.093,-0.0895,-0.0951,-0.0893,-0.0953,-0.1051,-0.106,-0.1137,-0.1138,-0.1189,-0.1185,-0.1188,-0.1052,0,0,0,0,-0.0944,-0.0958,-0.098,-0.0995,-0.1023,-0.1015,-0.1068,-0.1078,-0.1127,-0.109,-0.1185,-0.1181,-0.1182,-0.1093,-0.1161,-0.1161,-0.1161,-0.1161,-0.1161,-0.0954,-0.0989,-0.1036,-0.1076,-0.1112,-0.1138,-0.1151,-0.1159,-0.1201,-0.1212,-0.1204,-0.1221,-0.1128,-0.1208,-0.1209,-0.1209,-0.1209,-0.1209,-0.1209,-0.0988,-0.1007,-0.1061,-0.1115,-0.1138,-0.1182,-0.1208,-0.1219,-0.1233,-0.1226,-0.1226,-0.1128,-0.1212,-0.1211,-0.1211,-0.1211,-0.121,-0.121,-0.121,-0.0977,-0.0987,-0.1037,-0.1103,-0.1137,-0.1169,-0.1159,-0.1202,-0.124,-0.1254,-0.1146,-0.1231,-0.1231,-0.1254,-0.1254,-0.1254,-0.1254,-0.1255,-0.1255,-0.0923,-0.0976,-0.1012,-0.1078,-0.1084,-0.109,-0.113,-0.1133,-0.119,-0.1148,-0.1254,-0.1235,-0.1234,-0.1233,-0.1255,-0.1255,-0.1255,-0.1255,-0.1255,-0.088,-0.0918,-0.0956,-0.0973,-0.0977,-0.0957,-0.1022,-0.1019,-0.1027,-0.1021,-0.1089,-0.1097,-0.1067,-0.1069,-0.1061,-0.1033,-0.1032,-0.103,0,-0.0832,-0.0862,-0.089,-0.0876,-0.083,-0.0857,-0.0804,-0.0836,-0.0917,-0.0899,-0.1027,-0.1103,-0.1109,-0.1073,-0.1073,-0.1061,0,0,0,-0.0788,-0.0812,-0.0795,-0.0814,-0.0743,-0.0722,-0.0775,-0.0761,-0.0921,-0.0881,-0.0983,-0.0995,-0.1116,-0.1255,-0.1228,-0.1226,-0.1222,0,0]},{"header":{"parameterUnit":"m.s-1","parameterCategory":2,"la1":30.2992,"la2":30.254,"lo1":-89.0895,"lo2":-89.0443,"dy":0.0025,"dx":0.0025,"nx":19,"ny":19,"refTime":"2026-04-03T21:00:00:Z","depth":"4","parameterNumber":3,"parameterNumberName":"V-component_of_CURRENTS"},"data":[0,0,0,-0.0004,-0.0002,0.0147,0.0148,0.0248,0.0249,0,0,0,0,0,0,0,0,0,0,0,-0.0073,-0.0073,-0.0004,-0.0001,0.0147,0.0148,0.0248,0.0249,0,0,0,0,0,0,0,0,0,0,0,-0.0073,-0.0073,-0.0072,-0.0001,0.0147,0.0148,0.0248,0.0161,0,0,0,0,0,0,0,0,0,0,0.003,-0.0008,-0.0073,-0.0072,-0.0,0.0146,0.0148,0.0158,0.0167,0.0151,0,0.0156,0,0.0205,0.0252,0.0252,0,0,0,0.0012,-0.0015,0.0007,-0.0072,0.0001,0.0146,0.0084,0.0164,0.0173,0.0162,0.0158,0.0163,0.0206,0.0252,0.0253,0.0191,0.019,0,0,0.0004,-0.0024,0.0001,0.0012,0.0014,0.0079,0.0088,0.0171,0.0177,0.0159,0.0167,0.0208,0.0253,0.0253,0.0192,0.0191,0,0,0,-0.0029,-0.003,-0.0007,0.0007,0.0041,0.0083,0.0094,0.0174,0.0176,0.0168,0.0209,0.0253,0.0254,0.0193,0.0192,0.0107,0,0,0,-0.0033,-0.0049,-0.0012,-0.0023,0.0039,0.0127,0.0095,0.017,0.0182,0.0208,0.0253,0.0254,0.0195,0.0193,0.0112,0.0058,0,0,0,-0.0075,-0.0052,-0.0048,-0.0025,0.0034,0.0127,0.0137,0.0175,0.0206,0.0252,0.0254,0.0195,0.0193,0.0116,0.0065,0.0028,0,0,0,-0.0091,-0.0093,-0.0049,-0.0035,0.0032,0.0068,0.0137,0.0184,0.0217,0.0253,0.0194,0.0192,0.0118,0.007,0.0032,0.0079,0,0,0,-0.0105,-0.0095,-0.0088,-0.0045,-0.0035,0.0051,0.0043,0.012,0.0167,0.0166,0.0166,0.0111,0.0066,0.0029,-0.0071,0,0,0,0,-0.0099,-0.0106,-0.0092,-0.0071,-0.0031,-0.0028,0.0055,0.0063,0.0076,0.0175,0.0082,0.0056,0.0036,0.0075,0.0179,0.018,0.018,0.018,0.0181,-0.0172,-0.0145,-0.0153,-0.0133,-0.0122,-0.0084,-0.0089,-0.0074,-0.0001,-0.003,-0.0033,-0.0151,-0.0116,-0.0045,-0.0046,-0.0046,-0.0047,-0.0047,-0.0047,-0.0223,-0.0231,-0.0222,-0.0221,-0.023,-0.024,-0.0242,-0.0208,-0.0229,-0.016,-0.0173,-0.0043,-0.0056,-0.0054,-0.0053,-0.0052,-0.0051,-0.0051,-0.005,-0.0278,-0.0281,-0.0277,-0.0302,-0.0346,-0.0338,-0.0402,-0.0375,-0.0322,-0.0343,-0.0262,-0.0215,-0.0183,-0.0324,-0.0324,-0.0325,-0.0325,-0.0325,-0.0326,-0.0331,-0.0331,-0.0362,-0.0385,-0.0419,-0.0465,-0.0488,-0.0488,-0.0433,-0.0379,-0.0356,-0.0244,-0.0235,-0.02,-0.0333,-0.0331,-0.033,-0.033,-0.0329,-0.0377,-0.0381,-0.0432,-0.0466,-0.0536,-0.0566,-0.0591,-0.0546,-0.0549,-0.0496,-0.0389,-0.0384,-0.0347,-0.0335,-0.0301,-0.047,-0.047,-0.047,0,-0.0416,-0.0418,-0.0493,-0.0559,-0.0621,-0.0631,-0.0627,-0.0603,-0.0523,-0.0509,-0.0543,-0.0426,-0.0419,-0.0378,-0.0367,-0.033,0,0,0,-0.0448,-0.0468,-0.0531,-0.0585,-0.065,-0.0626,-0.0623,-0.0593,-0.0534,-0.0498,-0.0467,-0.0468,-0.0397,-0.0353,-0.0284,-0.0273,-0.0213,0,0]}]]